| time (UTC) | temp C | wind direction | speed KPH | gust KPH | rain 1hr cm | rain 24hr cm | rain mn cm | humidity % | barometer mb |
| 20260506153003 | 11 | 26 | 12.9 | 20.9 | 0.30 | 0.30 | 0.30 | 91 | 1013.7 |
| 20260506152003 | 11 | 324 | 9.7 | 20.9 | 0.30 | 0.30 | 0.30 | 91 | 1013.7 |
| 20260506151003 | 11 | 299 | 4.8 | 20.9 | 0.28 | 0.28 | 0.28 | 89 | 1013.7 |
| 20260506150003 | 11 | 3 | 14.5 | 19.3 | 0.25 | 0.25 | 0.25 | 86 | 1013.7 |
| 20260506145003 | 12 | 344 | 8.0 | 14.5 | 0.00 | 0.00 | 0.00 | 85 | 1012.2 |
| 20260506144004 | 12 | 334 | 6.4 | 14.5 | 0.00 | 0.00 | 0.00 | 84 | 1012.2 |
| 20260506143003 | 11 | 207 | 3.2 | 33.8 | 0.00 | 0.00 | 0.00 | 84 | 1012.2 |
| 20260506142004 | 12 | 358 | 12.9 | 24.1 | 0.00 | 0.00 | 0.00 | 84 | 1012.2 |
| 20260506141003 | 12 | 347 | 9.7 | 25.7 | 0.00 | 0.00 | 0.00 | 84 | 1012.2 |
| 20260506140004 | 12 | 339 | 14.5 | 19.3 | 0.00 | 0.00 | 0.00 | 83 | 1012.2 |
| 20260506135003 | 12 | 344 | 9.7 | 19.3 | 0.00 | 0.00 | 0.00 | 82 | 1010.0 |
| 20260506134004 | 12 | 354 | 12.9 | 19.3 | 0.00 | 0.00 | 0.00 | 82 | 1010.0 |
| 20260506133004 | 12 | 351 | 16.1 | 25.7 | 0.00 | 0.00 | 0.00 | 81 | 1010.0 |
| 20260506130004 | 12 | 353 | 14.5 | 29.0 | 0.00 | 0.00 | 0.00 | 79 | 1010.0 |
| 20260506125003 | 12 | 14 | 14.5 | 25.7 | 0.00 | 0.00 | 0.00 | 78 | 1010.0 |
| 20260506124004 | 12 | 338 | 12.9 | 22.5 | 0.00 | 0.00 | 0.00 | 78 | 1010.0 |
| 20260506123004 | 12 | 356 | 11.3 | 24.1 | 0.00 | 0.00 | 0.00 | 78 | 1010.0 |
| 20260506122004 | 12 | 355 | 9.7 | 32.2 | 0.00 | 0.00 | 0.00 | 78 | 1010.0 |
| 20260506121003 | 12 | 0 | 14.5 | 20.9 | 0.00 | 0.00 | 0.00 | 78 | 1010.0 |
| 20260506120003 | 13 | 349 | 16.1 | 25.7 | 0.00 | 0.00 | 0.00 | 78 | 1010.0 |
| 20260506115004 | 13 | 19 | 11.3 | 22.5 | 0.00 | 0.00 | 0.00 | 78 | 1010.0 |
| 20260506114004 | 13 | 355 | 11.3 | 19.3 | 0.00 | 0.00 | 0.00 | 78 | 1010.0 |
| 20260506112004 | 13 | 7 | 11.3 | 22.5 | 0.00 | 0.00 | 0.00 | 78 | 1009.2 |
| 20260506111003 | 13 | 351 | 9.7 | 24.1 | 0.00 | 0.00 | 0.00 | 78 | 1009.2 |
| 20260506110003 | 13 | 345 | 11.3 | 29.0 | 0.00 | 0.00 | 0.00 | 77 | 1009.2 |
| 20260506104003 | 14 | 2 | 14.5 | 24.1 | 0.00 | 0.00 | 0.00 | 78 | 1008.5 |
| 20260506102003 | 14 | 10 | 12.9 | 22.5 | 0.00 | 0.00 | 0.00 | 79 | 1008.0 |
| 20260506101003 | 14 | 11 | 11.3 | 19.3 | 0.00 | 0.00 | 0.00 | 78 | 1008.0 |
| 20260506100004 | 15 | 345 | 11.3 | 19.3 | 0.00 | 0.00 | 0.00 | 78 | 1008.0 |
| 20260506095004 | 15 | 355 | 11.3 | 19.3 | 0.00 | 0.00 | 0.00 | 78 | 1008.0 |
| 20260506094004 | 15 | 340 | 11.3 | 16.1 | 0.00 | 0.00 | 0.00 | 78 | 1008.0 |
| 20260506093003 | 15 | 352 | 11.3 | 19.3 | 0.00 | 0.00 | 0.00 | 78 | 1007.8 |
| 20260506092004 | 15 | 1 | 14.5 | 19.3 | 0.00 | 0.00 | 0.00 | 78 | 1007.8 |
| 20260506091003 | 15 | 13 | 12.9 | 20.9 | 0.00 | 0.00 | 0.00 | 78 | 1007.8 |
| 20260506090003 | 16 | 7 | 11.3 | 19.3 | 0.00 | 0.00 | 0.00 | 78 | 1007.8 |
| 20260506085003 | 16 | 7 | 11.3 | 20.9 | 0.00 | 0.00 | 0.00 | 78 | 1007.7 |
| 20260506084003 | 16 | 19 | 9.7 | 19.3 | 0.00 | 0.00 | 0.00 | 78 | 1007.5 |
| 20260506083004 | 16 | 20 | 12.9 | 22.5 | 0.00 | 0.00 | 0.00 | 78 | 1007.2 |
| 20260506082004 | 16 | 356 | 9.7 | 19.3 | 0.00 | 0.00 | 0.00 | 78 | 1007.2 |
| 20260506081003 | 16 | 10 | 12.9 | 19.3 | 0.00 | 0.00 | 0.00 | 78 | 1007.2 |
| 20260506073003 | 16 | 15 | 9.7 | 14.5 | 0.00 | 0.00 | 0.00 | 80 | 1007.3 |
| 20260506072003 | 16 | 345 | 11.3 | 16.1 | 0.00 | 0.00 | 0.00 | 79 | 1007.3 |
| 20260506071003 | 16 | 351 | 11.3 | 20.9 | 0.00 | 0.00 | 0.00 | 79 | 1007.3 |
| 20260506062003 | 17 | 9 | 14.5 | 24.1 | 0.00 | 0.00 | 0.00 | 79 | 1007.1 |
| 20260506051003 | 18 | 336 | 14.5 | 22.5 | 0.00 | 0.00 | 0.00 | 77 | 1007.0 |
| 20260506044003 | 18 | 13 | 14.5 | 22.5 | 0.00 | 0.00 | 0.00 | 75 | 1007.0 |
| 20260506043003 | 19 | 15 | 16.1 | 24.1 | 0.00 | 0.00 | 0.00 | 75 | 1007.0 |
| 20260506042004 | 20 | 346 | 12.9 | 19.3 | 0.00 | 0.00 | 0.00 | 75 | 1006.2 |
| 20260506041003 | 20 | 9 | 11.3 | 22.5 | 0.00 | 0.00 | 0.00 | 75 | 1006.2 |
| 20260506040003 | 20 | 352 | 11.3 | 19.3 | 0.00 | 0.00 | 0.00 | 74 | 1006.2 |
| 20260506035004 | 20 | 346 | 14.5 | 20.9 | 0.00 | 0.00 | 0.00 | 73 | 1006.2 |
| 20260506034003 | 20 | 4 | 9.7 | 20.9 | 0.00 | 0.00 | 0.00 | 72 | 1005.7 |
| 20260506032003 | 20 | 7 | 11.3 | 19.3 | 0.00 | 0.00 | 0.00 | 70 | 1005.7 |
| 20260506031004 | 20 | 16 | 11.3 | 19.3 | 0.00 | 0.00 | 0.00 | 70 | 1005.7 |
| 20260506030004 | 21 | 0 | 11.3 | 19.3 | 0.00 | 0.00 | 0.00 | 70 | 1005.7 |
| 20260506025004 | 21 | 341 | 16.1 | 22.5 | 0.00 | 0.00 | 0.00 | 70 | 1005.0 |
| 20260506023004 | 22 | 343 | 16.1 | 20.9 | 0.00 | 0.00 | 0.00 | 69 | 1004.9 |
| 20260506022003 | 22 | 349 | 14.5 | 20.9 | 0.00 | 0.00 | 0.00 | 69 | 1004.6 |
| 20260506020004 | 22 | 356 | 12.9 | 22.5 | 0.00 | 0.00 | 0.00 | 68 | 1004.0 |
| 20260506015003 | 23 | 16 | 16.1 | 25.7 | 0.00 | 0.00 | 0.00 | 67 | 1003.1 |
| 20260506014004 | 23 | 22 | 14.5 | 22.5 | 0.00 | 0.00 | 0.00 | 67 | 1003.1 |
| 20260506013004 | 24 | 7 | 12.9 | 19.3 | 0.00 | 0.00 | 0.00 | 66 | 1003.1 |
| 20260506012003 | 25 | 9 | 11.3 | 22.5 | 0.00 | 0.00 | 0.00 | 64 | 1003.1 |
| 20260506011004 | 25 | 16 | 11.3 | 19.3 | 0.00 | 0.00 | 0.00 | 64 | 1002.3 |
| 20260506010004 | 25 | 345 | 14.5 | 22.5 | 0.00 | 0.00 | 0.00 | 62 | 1002.3 |
| 20260506004003 | 26 | 341 | 11.3 | 19.3 | 0.00 | 0.00 | 0.00 | 61 | 1002.3 |
| 20260506003003 | 26 | 357 | 9.7 | 16.1 | 0.00 | 0.00 | 0.00 | 60 | 1002.3 |
| 20260506002004 | 27 | 347 | 11.3 | 19.3 | 0.00 | 0.00 | 0.00 | 59 | 1002.3 |
| 20260506001004 | 27 | 335 | 16.1 | 20.9 | 0.00 | 0.00 | 0.00 | 59 | 1002.3 |
| 20260506000004 | 28 | 349 | 6.4 | 16.1 | 0.00 | 0.00 | 0.00 | 59 | 1002.3 |
| 20260505235004 | 28 | 342 | 8.0 | 19.3 | 0.00 | 0.00 | 0.00 | 56 | 1001.5 |
| 20260505234003 | 29 | 327 | 1.6 | 14.5 | 0.00 | 0.00 | 0.00 | 52 | 1001.5 |
| 20260505233003 | 30 | 168 | 3.2 | 8.0 | 0.00 | 0.00 | 0.00 | 66 | 1001.5 |
| 20260505232004 | 30 | 165 | 4.8 | 11.3 | 0.00 | 0.00 | 0.00 | 65 | 1001.5 |
| 20260505231004 | 31 | 145 | 4.8 | 11.3 | 0.00 | 0.00 | 0.00 | 62 | 1001.5 |
| 20260505230004 | 31 | 187 | 3.2 | 14.5 | 0.00 | 0.00 | 0.00 | 58 | 1001.4 |
| 20260505224003 | 32 | 166 | 3.2 | 8.0 | 0.00 | 0.00 | 0.00 | 56 | 1001.4 |
| 20260505222004 | 32 | 156 | 3.2 | 8.0 | 0.00 | 0.00 | 0.00 | 54 | 1001.2 |
| 20260505221003 | 32 | 238 | 4.8 | 11.3 | 0.00 | 0.00 | 0.00 | 53 | 1001.2 |
| 20260505220003 | 33 | 218 | 4.8 | 11.3 | 0.00 | 0.00 | 0.00 | 50 | 1001.2 |
| 20260505215004 | 33 | 159 | 1.6 | 8.0 | 0.00 | 0.00 | 0.00 | 50 | 1001.2 |
| 20260505214003 | 32 | 229 | 3.2 | 11.3 | 0.00 | 0.00 | 0.00 | 50 | 1001.4 |
| 20260505213003 | 32 | 220 | 3.2 | 9.7 | 0.00 | 0.00 | 0.00 | 53 | 1001.4 |
| 20260505212004 | 32 | 211 | 4.8 | 9.7 | 0.00 | 0.00 | 0.00 | 53 | 1001.4 |
| 20260505211003 | 32 | 224 | 8.0 | 12.9 | 0.00 | 0.00 | 0.00 | 52 | 1002.2 |
| 20260505205003 | 32 | 208 | 4.8 | 9.7 | 0.00 | 0.00 | 0.00 | 52 | 1002.2 |
| 20260505204003 | 31 | 212 | 1.6 | 12.9 | 0.00 | 0.00 | 0.00 | 56 | 1002.2 |
| 20260505203003 | 31 | 202 | 4.8 | 12.9 | 0.00 | 0.00 | 0.00 | 55 | 1002.2 |
| 20260505201003 | 31 | 190 | 4.8 | 14.5 | 0.00 | 0.00 | 0.00 | 56 | 1002.3 |
| 20260505200004 | 31 | 222 | 9.7 | 14.5 | 0.00 | 0.00 | 0.00 | 54 | 1002.3 |
| 20260505195003 | 31 | 223 | 3.2 | 19.3 | 0.00 | 0.00 | 0.00 | 58 | 1002.3 |
| 20260505193003 | 30 | 154 | 8.0 | 16.1 | 0.00 | 0.00 | 0.00 | 61 | 1002.5 |
| 20260505192004 | 30 | 179 | 9.7 | 16.1 | 0.00 | 0.00 | 0.00 | 61 | 1002.9 |
| 20260505191003 | 30 | 165 | 6.4 | 19.3 | 0.00 | 0.00 | 0.00 | 62 | 1002.9 |
| 20260505190004 | 30 | 183 | 9.7 | 24.1 | 0.00 | 0.00 | 0.00 | 62 | 1002.9 |
| 20260505185004 | 30 | 214 | 8.0 | 16.1 | 0.00 | 0.00 | 0.00 | 63 | 1002.9 |
| 20260505184004 | 29 | 191 | 8.0 | 22.5 | 0.00 | 0.00 | 0.00 | 63 | 1002.9 |
| 20260505182004 | 29 | 234 | 8.0 | 19.3 | 0.00 | 0.00 | 0.00 | 63 | 1002.9 |
| 20260505181004 | 29 | 200 | 4.8 | 19.3 | 0.00 | 0.00 | 0.00 | 66 | 1002.9 |
| 20260505180003 | 28 | 161 | 8.0 | 14.5 | 0.00 | 0.00 | 0.00 | 66 | 1003.0 |
| 20260505175004 | 28 | 211 | 9.7 | 19.3 | 0.00 | 0.00 | 0.00 | 66 | 1003.0 |
| 20260505174003 | 28 | 201 | 8.0 | 25.7 | 0.00 | 0.00 | 0.00 | 68 | 1003.3 |
| 20260505172003 | 27 | 175 | 8.0 | 14.5 | 0.00 | 0.00 | 0.00 | 68 | 1003.3 |
| 20260505171004 | 27 | 213 | 4.8 | 19.3 | 0.00 | 0.00 | 0.00 | 69 | 1003.3 |
| 20260505170003 | 27 | 194 | 4.8 | 19.3 | 0.00 | 0.00 | 0.00 | 69 | 1002.8 |
| 20260505165004 | 27 | 183 | 9.7 | 32.2 | 0.00 | 0.00 | 0.00 | 67 | 1002.8 |
| 20260505164003 | 27 | 215 | 8.0 | 19.3 | 0.00 | 0.00 | 0.00 | 70 | 1002.8 |
| 20260505163004 | 27 | 172 | 8.0 | 19.3 | 0.00 | 0.00 | 0.00 | 70 | 1002.8 |
| 20260505162003 | 26 | 191 | 8.0 | 19.3 | 0.00 | 0.00 | 0.00 | 72 | 1002.8 |
| 20260505161003 | 26 | 178 | 8.0 | 16.1 | 0.00 | 0.00 | 0.00 | 73 | 1002.8 |